FW8483 Weather Reports


time (UTC)temp
F
wind
direction
speed
knots
gust
knots
rain 1hr
in
rain 24hr
in
rain mn
in
humidity
%
barometer
mb
20260503214008 76 276 5.2 8.7 0.00 0.00 0.00 32 1017.4
20260503213504 76 265 2.6 6.1 0.00 0.00 0.00 32 1017.5
20260503213016 76 67 0.9 3.5 0.00 0.00 0.00 32 1017.6
20260503212507 76 31 0.9 2.6 0.00 0.00 0.00 34 1017.6
20260503212008 75 236 0.9 4.3 0.00 0.00 0.00 32 1017.7
20260503211521 75 5 1.7 7.0 0.00 0.00 0.00 31 1017.8
20260503211007 75 264 0.0 7.8 0.00 0.00 0.00 31 1017.8
20260503210511 76 322 3.5 8.7 0.00 0.00 0.00 33 1017.8
20260503210003 75 271 2.6 8.7 0.00 0.00 0.00 33 1017.7
20260503205504 75 15 2.6 9.6 0.00 0.00 0.00 31 1017.7
20260503205002 75 350 2.6 11.3 0.00 0.00 0.00 32 1017.8
20260503204510 75 330 1.7 11.3 0.00 0.00 0.00 31 1017.9
20260503204005 75 26 3.5 8.7 0.00 0.00 0.00 31 1017.9
20260503203504 75 107 2.6 8.7 0.00 0.00 0.00 33 1017.9
20260503203025 75 265 3.5 8.7 0.00 0.00 0.00 32 1018.1
20260503202506 75 307 3.5 9.6 0.00 0.00 0.00 32 1018.1
20260503202006 75 296 2.6 10.4 0.00 0.00 0.00 32 1018.1
20260503201522 75 336 6.1 10.4 0.00 0.00 0.00 33 1018.3
20260503201007 75 44 4.3 10.4 0.00 0.00 0.00 34 1018.2
20260503200509 75 84 0.9 8.7 0.00 0.00 0.00 35 1018.3
20260503200024 75 13 2.6 8.7 0.00 0.00 0.00 35 1018.4
20260503195503 74 275 3.5 11.3 0.00 0.00 0.00 34 1018.4
20260503195001 74 341 5.2 11.3 0.00 0.00 0.00 33 1018.6
20260503194513 75 24 4.3 8.7 0.00 0.00 0.00 33 1018.6
20260503194001 75 5 0.9 7.8 0.00 0.00 0.00 32 1018.7
20260503193506 74 168 2.6 8.7 0.00 0.00 0.00 33 1018.8
20260503193018 74 277 3.5 8.7 0.00 0.00 0.00 32 1019.0
20260503192503 74 348 3.5 8.7 0.00 0.00 0.00 35 1018.9
20260503192006 74 49 5.2 8.7 0.00 0.00 0.00 33 1018.9
20260503191520 74 302 3.5 9.6 0.00 0.00 0.00 32 1019.1
20260503191006 74 360 4.3 9.6 0.00 0.00 0.00 34 1019.1
20260503190507 74 59 2.6 7.8 0.00 0.00 0.00 33 1019.3
20260503190023 74 290 2.6 7.8 0.00 0.00 0.00 40 1019.4
20260503185507 74 48 3.5 7.8 0.00 0.00 0.00 35 1019.4
20260503185006 74 79 2.6 7.8 0.00 0.00 0.00 36 1019.4
20260503184508 74 84 1.7 8.7 0.00 0.00 0.00 35 1019.5
20260503184007 73 360 5.2 8.7 0.00 0.00 0.00 33 1019.6
20260503183504 73 317 3.5 8.7 0.00 0.00 0.00 35 1019.6
20260503183012 73 5 0.9 8.7 0.00 0.00 0.00 34 1019.8
20260503182502 73 47 2.6 8.7 0.00 0.00 0.00 33 1019.9
20260503182007 73 345 4.3 9.6 0.00 0.00 0.00 36 1019.9
20260503181520 73 346 7.0 10.4 0.00 0.00 0.00 33 1020.0
20260503181007 73 13 5.2 10.4 0.00 0.00 0.00 37 1019.9
20260503180508 72 114 2.6 7.8 0.00 0.00 0.00 34 1019.9
20260503180029 72 45 3.5 9.6 0.00 0.00 0.00 34 1020.0
20260503175507 72 20 4.3 11.3 0.00 0.00 0.00 35 1020.1
20260503175006 73 348 6.1 11.3 0.00 0.00 0.00 36 1020.1
20260503174524 72 46 4.3 9.6 0.00 0.00 0.00 35 1020.2
20260503174009 72 235 4.3 9.6 0.00 0.00 0.00 37 1020.2
20260503173503 72 341 3.5 8.7 0.00 0.00 0.00 35 1020.2
20260503173020 72 5 2.6 16.5 0.00 0.00 0.00 33 1020.4
20260503172504 72 360 2.6 16.5 0.00 0.00 0.00 38 1020.4
20260503172003 72 44 5.2 15.6 0.00 0.00 0.00 35 1020.3
20260503171521 72 346 3.5 9.6 0.00 0.00 0.00 36 1020.5
20260503171006 72 75 4.3 9.6 0.00 0.00 0.00 35 1020.5
20260503170506 72 5 3.5 14.8 0.00 0.00 0.00 38 1020.6
20260503151003 69 36 3.5 6.1 0.00 0.00 0.00 47 1021.4
20260503150503 69 32 1.7 5.2 0.00 0.00 0.00 47 1021.4
20260503131004 58 66 1.7 3.5 0.00 0.00 0.00 74 1020.7
20260503130502 57 158 0.0 0.0 0.00 0.00 0.00 79 1020.8
20260503110503 43 33 0.0 0.0 0.00 0.13 0.00 95 1019.7
20260503090508 44 331 0.0 0.0 0.00 0.49 0.00 94 1019.0
20260503081525 45 331 0.0 0.0 0.00 0.60 0.00 93 1018.5
20260503081008 45 331 0.0 0.0 0.00 0.66 0.00 93 1018.6
20260503080508 45 331 0.0 0.0 0.00 0.71 0.00 93 1018.6
20260503072507 46 331 0.0 0.0 0.00 0.87 0.00 93 1018.2
20260503072004 46 331 0.0 0.0 0.00 0.90 0.00 93 1018.2
20260503071520 46 331 0.0 0.0 0.00 0.92 0.00 92 1018.2
20260503071007 46 331 0.0 0.0 0.00 0.94 0.00 92 1018.2
20260503070507 46 331 0.0 0.0 0.00 0.94 0.00 91 1018.2
20260503055003 49 331 0.0 0.0 0.00 0.94 0.00 86 1018.1
20260503054511 49 331 0.0 0.0 0.00 0.94 0.00 86 1018.1
20260503054003 49 331 0.0 0.0 0.00 0.94 0.00 87 1018.0
20260503053503 49 331 0.0 0.0 0.00 0.96 0.00 86 1018.1
20260503053013 49 331 0.0 0.0 0.00 0.97 0.00 86 1018.1
20260503052505 49 331 0.0 0.0 0.00 1.00 0.00 88 1018.1
20260503052006 50 331 0.0 0.0 0.00 1.00 0.00 87 1018.1
20260503051516 50 331 0.0 0.0 0.00 1.00 0.00 87 1018.1
20260503051003 50 331 0.0 0.0 0.00 1.01 0.00 86 1018.0
20260503050503 50 331 0.0 0.0 0.00 1.01 0.00 85 1018.0
20260503050012 51 331 0.0 0.0 0.00 1.02 0.00 83 1018.0
20260503045503 51 331 0.0 0.0 0.00 1.03 1.02 83 1017.9
20260503045003 51 331 0.0 0.0 0.00 1.04 1.02 84 1017.9
20260503044522 51 331 0.0 0.0 0.00 1.04 1.02 85 1017.8
20260503044002 52 331 0.0 0.0 0.00 1.08 1.02 86 1017.8
20260503043504 52 331 0.0 0.0 0.00 1.10 1.02 84 1017.8
20260503043015 52 331 0.0 0.0 0.00 1.13 1.02 83 1017.8
20260503042503 53 331 0.0 0.0 0.00 1.15 1.02 82 1017.7
20260503042004 53 331 0.0 0.0 0.00 1.17 1.02 81 1017.6
20260503041512 54 331 0.0 0.0 0.00 1.21 1.02 80 1017.6
20260503041006 54 331 0.0 0.0 0.00 1.26 1.02 79 1017.5
20260503040504 55 331 0.0 0.0 0.00 1.31 1.02 78 1017.5
20260503040012 55 331 0.0 0.0 0.00 1.43 1.02 76 1017.4
20260503035505 55 331 0.0 0.0 0.00 1.51 1.02 75 1017.4
20260503035005 55 336 0.0 1.7 0.00 1.65 1.02 76 1017.4
20260503034516 56 334 0.0 1.7 0.00 1.77 1.02 76 1017.3
20260503034004 56 346 0.0 0.0 0.00 1.85 1.02 76 1017.3
20260503033503 56 345 0.0 0.0 0.00 1.89 1.02 73 1017.3
20260503033016 56 314 0.0 0.0 0.00 1.95 1.02 73 1017.2
20260503032503 56 334 0.0 0.0 0.00 1.98 1.02 77 1017.2
20260503032004 56 299 0.0 0.0 0.00 2.02 1.02 76 1017.1
20260503031513 57 336 0.0 0.0 0.00 2.08 1.02 74 1017.0
20260503031003 57 352 0.0 0.0 0.00 2.14 1.02 73 1017.0
20260503030505 57 342 0.0 1.7 0.00 2.17 1.02 72 1017.0
20260503030024 57 352 0.0 1.7 0.00 2.24 1.02 72 1016.9
20260503025503 58 303 0.0 3.5 0.00 2.26 1.02 72 1016.9
20260503025005 58 337 0.0 3.5 0.00 2.29 1.02 72 1016.9
20260503024515 58 350 0.0 2.6 0.00 2.31 1.02 72 1016.8
20260503024004 58 303 0.0 0.0 0.00 2.31 1.02 72 1016.8
20260503023504 58 328 0.0 0.0 0.00 2.33 1.02 72 1016.7
20260503023036 58 350 0.0 1.7 0.00 2.35 1.02 71 1016.6
20260503022503 58 329 0.0 1.7 0.00 2.45 1.02 73 1016.5
20260503022003 58 319 0.0 0.0 0.00 2.50 1.02 72 1016.4
20260503021517 59 351 0.0 0.0 0.00 2.54 1.02 73 1016.3
20260503021004 59 351 0.0 2.6 0.00 2.56 1.02 73 1016.2
20260503020504 59 329 0.0 2.6 0.00 2.57 1.02 1016.2
20260503020015 60 329 0.0 1.7 0.00 2.58 1.02 69 1016.1
20260503015507 60 321 0.0 1.7 0.00 2.58 1.02 69 1016.0
20260503015009 61 317 0.0 0.0 0.00 2.59 1.02 69 1015.9
20260503014517 61 345 0.0 0.0 0.00 2.60 1.02 70 1015.8
20260503014005 61 335 0.0 0.0 0.00 2.61 1.02 67 1015.8
20260503013503 62 333 0.0 2.6 0.00 2.61 1.02 66 1015.7
20260503013018 62 336 0.0 5.2 0.00 2.61 1.02 66 1015.6
20260503012506 62 352 0.9 5.2 0.00 2.61 1.02 67 1015.6
20260503012006 62 320 1.7 4.3 0.00 2.61 1.02 68 1015.4
20260503011519 62 360 2.6 4.3 0.00 2.62 1.02 69 1015.3
20260503011007 62 325 0.9 2.6 0.00 2.62 1.02 73 1015.3
20260503010514 62 340 0.0 0.0 0.00 2.62 1.02 74 1015.2
20260503010024 63 334 0.0 0.0 0.00 2.63 1.02 74 1015.0
20260503005503 63 321 0.0 0.0 0.00 2.64 1.02 72 1014.8
20260503005007 64 348 0.0 0.0 0.00 2.65 1.02 70 1014.7
20260503004542 64 323 0.0 0.0 0.00 2.67 1.02 69 1014.6
20260503004007 65 331 0.0 2.6 0.00 2.69 1.02 68 1014.3
20260503003505 65 9 0.0 2.6 0.00 2.70 1.02 66 1014.1
20260503003018 65 333 0.0 3.5 0.00 2.72 1.02 65 1014.1
20260503002509 66 337 0.9 4.3 0.00 2.72 1.02 64 1013.9
20260503002006 66 40 1.7 4.3 0.00 2.73 1.02 63 1013.8
20260503001519 67 331 1.7 3.5 0.00 2.73 1.02 63 1013.7
20260503001006 67 337 0.9 3.5 0.00 2.73 1.02 62 1013.6
20260503000504 67 320 0.9 3.5 0.00 2.73 1.02 61 1013.5
20260503000024 68 19 0.0 6.1 0.00 2.73 1.02 61 1013.4
20260502235503 68 339 2.6 6.1 0.00 2.73 1.02 60 1013.4
20260502235004 68 329 1.7 6.1 0.00 2.73 1.02 60 1013.2
20260502234514 69 76 2.6 3.5 0.00 2.73 1.02 59 1013.0
20260502234005 69 352 1.7 8.7 0.00 2.73 1.02 58 1012.9
20260502233505 70 340 0.9 8.7 0.00 2.73 1.02 57 1012.7
20260502233020 70 315 3.5 8.7 0.00 2.73 1.02 56 1012.6
20260502232507 70 330 2.6 8.7 0.00 2.73 1.02 56 1012.5
20260502232006 71 348 3.5 8.7 0.00 2.73 1.02 56 1012.4
20260502231521 71 326 3.5 8.7 0.00 2.73 1.02 56 1012.4
20260502231007 71 349 3.5 7.8 0.00 2.73 1.02 55 1012.4
20260502230507 71 360 1.7 7.8 0.00 2.73 1.02 55 1012.5
20260502230020 71 292 2.6 11.3 0.00 2.73 1.02 55 1012.5
20260502225506 71 321 4.3 11.3 0.00 2.73 1.02 54 1012.3
20260502225007 72 301 4.3 10.4 0.00 2.73 1.02 56 1012.4
20260502224522 72 297 2.6 10.4 0.00 2.73 1.02 56 1012.4
20260502224005 72 322 5.2 10.4 0.00 2.73 1.02 55 1012.4
20260502223504 72 342 3.5 9.6 0.00 2.74 1.02 56 1012.3
20260502223020 72 304 2.6 10.4 0.00 2.74 1.02 57 1012.3
20260502222505 72 10 2.6 11.3 0.00 2.74 1.02 56 1012.2
20260502222007 71 342 5.2 11.3 0.00 2.74 1.02 55 1012.3
20260502221519 71 296 7.8 12.2 0.00 2.74 1.02 56 1012.2
20260502221007 71 349 5.2 12.2 0.00 2.74 1.02 58 1012.2
20260502220508 70 318 3.5 9.6 0.00 2.74 1.02 59 1012.2
20260502220022 70 22 3.5 9.6 0.00 2.74 1.02 59 1012.2
20260502215508 71 336 4.3 11.3 0.00 2.74 1.02 57 1012.2
20260502215007 71 342 3.5 11.3 0.00 2.74 1.02 57 1012.1
20260502214522 71 339 3.5 9.6 0.00 2.74 1.02 57 1012.1